507  
AXUS43 KGID 292102  
MISGRI  
 
GID CWA HOURLY WEATHER ROUNDUP  
NATIONAL WEATHER SERVICE HASTINGS NE  
400 PM CDT MON AUG 29 2016  
 
NOTE: "FAIR" INDICATES FEW OR NO CLOUDS BELOW 12,000 FEET WITH NO  
SIGNIFICANT WEATHER AND/OR OBSTRUCTIONS TO VISIBILITY.  
   
..SOUTH CENTRAL NEBRASKA
 
 
 
CITY SKY/WX TMP DP RH WIND PRES REMARKS  
GRAND ISLAND CLOUDY 84 66 54 W5 30.16F  
HASTINGS CLOUDY 81 67 62 W8 30.17F  
KEARNEY CLOUDY 79 66 65 CALM 30.17F  
ORD CLOUDY 82 64 54 S8 30.16F  
YORK MOSUNNY 86 66 51 CALM 30.14F  
AURORA CLOUDY 84 69 59 SW6 30.15F  
LEXINGTON MOSUNNY 79 64 60 SW8 30.20F  
HOLDREGE CLOUDY 76 66 72 NW3 30.19F  
HEBRON CLOUDY 72 64 76 W5 30.15F  
   
..NEBRASKA PANHANDLE
 
 
 
CITY SKY/WX TMP DP RH WIND PRES REMARKS  
CHADRON SUNNY 86 52 30 E9 30.21F  
ALLIANCE CLOUDY 85 54 34 NE10 30.22F  
SCOTTSBLUFF CLOUDY 89 50 26 E14 30.22F  
SIDNEY MOSUNNY 83 54 36 NE14 30.25F  
   
..WESTERN AND NORTH CENTRAL NEBRASKA
 
 
 
CITY SKY/WX TMP DP RH WIND PRES REMARKS  
VALENTINE MOSUNNY 89 57 33 SE7G16 30.16F  
AINSWORTH MOSUNNY 84 64 50 S13 30.18F  
ONEILL CLOUDY 84 63 49 S7 30.17F  
BROKEN BOW CLOUDY 81 64 56 S9 30.19F  
IMPERIAL CLOUDY 79 56 45 SE9 30.21F  
NORTH PLATTE CLOUDY 80 64 58 SE8 30.19F  
MCCOOK CLOUDY 77 62 59 SW9 30.20F  
   
..EASTERN NEBRASKA
 
 
 
CITY SKY/WX TMP DP RH WIND PRES REMARKS  
NORFOLK PTSUNNY 83 65 54 S3 30.15F  
SO SIOUX CITY MOSUNNY 83 72 69 SE5 30.15F  
TEKAMAH PTSUNNY 85 73 67 CALM 30.13F HX 91  
COLUMBUS CLOUDY 84 64 51 S7 30.15F  
ALBION MOSUNNY 82 66 58 S6 30.17F  
OMAHA EPPLEY PTSUNNY 86 74 67 N8 30.11F HX 94  
OFFUTT AFB SUNNY 88 71 57 S3 30.11F HX 93  
MILLARD SUNNY 86 71 62 SE3 30.12F HX 91  
LINCOLN CLOUDY 83 73 72 N9 30.13F THUNDER  
NEBRASKA CITY SUNNY 86 71 61 SE6 30.13F HX 91  
BEATRICE CLOUDY 86 70 58 S10 30.12F HX 91  
FALLS CITY MOSUNNY 87 71 58 SE7 30.10F HX 93  
   
..NORTHERN KANSAS
 
 
 
CITY SKY/WX TMP DP RH WIND PRES REMARKS  
GOODLAND CLOUDY 74 61 63 S13 30.24F  
HILL CITY LGT RAIN 75 70 84 NW5 30.18F  
NORTON PTCLDY 75 64 69 CALM 30.19F  
SMITH CENTER SUNNY 81 64 57 CALM 30.17F  
BELOIT SUNNY 79 66 65 SE7 30.13R  
HAYS CLOUDY 81 63 54 NE7 30.16S  
RUSSELL TSTM 68 64 87 E23G32 30.18R FOG  
CONCORDIA CLOUDY 80 67 64 S12 30.14F  
SALINA LGT RAIN 74 69 85 NW7 30.14S  
TOPEKA SUNNY 88 69 53 SE9 30.11F HX 92  
 
CLICK HERE TO GO TO PREVIOUS BULLETINS.

The Nexlab NE Page
The Nexlab KS Page Main Text Page